�N����,����,�~����,�C��,���x,�C��,����,���ϕ���,�ő�u�ԕ���,�ő厞����,���˗�,�I�_���x,�n�����x,�ő啗���N��,DTYPE
"20/05/20","00:10",0.0,13.9,90.1,996.5,287.2,0.8,1.4,304.9,0.00,12.3,18.3,"00:06:08",1
"20/05/20","00:20",0.0,13.6,90.3,996.0,296.3,1.0,1.6,316.5,0.00,12.1,18.4,"00:12:56",1
"20/05/20","00:30",0.0,13.7,90.7,996.3,313.4,1.2,1.7,318.0,0.00,12.2,18.1,"00:23:44",1
"20/05/20","00:40",0.0,13.6,91.1,996.5,293.4,1.2,3.6,340.7,0.00,12.2,18.3,"00:30:02",1
"20/05/20","00:50",0.0,13.6,91.3,996.5,283.0,1.2,4.0,342.3,0.00,12.2,18.0,"00:40:32",1
"20/05/20","01:00",0.0,13.7,91.7,996.5,290.7,1.2,2.7,325.5,0.00,12.4,18.0,"00:58:56",1
"20/05/20","01:10",0.0,13.6,91.9,996.5,319.8,0.8,2.0,339.9,0.00,12.3,18.0,"01:01:28",1
"20/05/20","01:20",0.0,13.5,92.3,996.3,285.1,1.2,2.9,313.2,0.00,12.3,17.7,"01:13:52",1
"20/05/20","01:30",0.0,13.5,92.5,996.3,309.0,1.1,2.4,243.1,0.00,12.3,17.8,"01:20:48",1
"20/05/20","01:40",0.0,13.4,92.7,996.7,312.3,1.3,2.8,319.9,0.00,12.3,17.9,"01:37:20",1
"20/05/20","01:50",0.0,13.2,92.9,996.7,294.9,1.1,1.9,264.2,0.00,12.1,17.8,"01:47:52",1
"20/05/20","02:00",0.0,13.1,93.2,996.7,322.4,1.2,2.2,331.4,0.00,12.1,17.8,"01:55:12",1
"20/05/20","02:10",0.0,13.2,93.6,996.7,334.8,1.8,3.3,326.9,0.00,12.2,17.6,"02:08:48",1
"20/05/20","02:20",0.0,13.5,93.4,997.0,326.7,1.6,3.1,324.9,0.00,12.5,17.5,"02:17:36",1
"20/05/20","02:30",0.0,13.6,93.5,997.0,323.0,1.5,3.6,316.0,0.00,12.6,17.4,"02:20:02",1
"20/05/20","02:40",0.0,14.1,92.8,997.2,334.8,1.8,3.4,329.0,0.00,13.0,17.5,"02:30:32",1
"20/05/20","02:50",0.0,14.2,92.1,997.4,323.9,2.0,4.4,355.3,0.00,13.0,17.6,"02:47:12",1
"20/05/20","03:00",0.0,14.9,90.8,997.4,330.1,1.8,2.7,314.5,0.00,13.5,17.6,"02:54:08",1
"20/05/20","03:10",0.0,15.2,89.3,997.7,320.4,1.7,3.2,332.7,0.00,13.5,17.5,"03:02:24",1
"20/05/20","03:20",0.0,15.0,87.7,997.7,304.0,1.5,1.9,335.9,0.00,13.0,17.3,"03:10:08",1
"20/05/20","03:30",0.0,14.7,86.5,997.7,313.3,1.5,2.7,334.3,0.00,12.5,17.2,"03:22:32",1
"20/05/20","03:40",0.0,14.4,85.8,997.9,302.6,1.1,1.8,334.1,0.00,12.1,17.3,"03:39:20",1
"20/05/20","03:50",0.0,14.0,85.6,998.2,303.4,1.2,2.0,316.8,0.00,11.7,17.1,"03:49:30",1
"20/05/20","04:00",0.0,13.8,85.8,997.9,300.2,1.3,2.4,335.5,0.00,11.5,17.3,"03:50:32",1
"20/05/20","04:10",0.0,13.6,86.2,997.9,296.4,1.0,1.6,277.2,0.00,11.4,17.2,"04:02:48",1
"20/05/20","04:20",0.0,13.4,86.5,997.9,275.6,1.0,1.6,263.3,0.00,11.2,17.1,"04:15:20",1
"20/05/20","04:30",0.0,13.4,87.0,998.2,286.1,1.5,2.1,293.4,0.00,11.3,17.1,"04:23:52",1
"20/05/20","04:40",0.0,13.3,87.6,997.9,313.8,1.6,2.1,332.7,0.00,11.3,17.2,"04:39:28",1
"20/05/20","04:50",0.0,13.1,88.1,998.2,291.8,1.2,1.8,327.6,0.00,11.2,17.2,"04:40:08",1
"20/05/20","05:00",0.0,13.1,88.6,998.2,281.4,1.2,1.9,311.3,0.00,11.3,16.9,"04:55:04",1
"20/05/20","05:10",0.0,13.2,89.0,998.4,278.4,1.2,1.8,306.9,0.00,11.5,16.8,"05:03:52",1
"20/05/20","05:20",0.0,13.5,89.3,998.4,309.0,1.8,2.9,323.0,0.00,11.8,16.7,"05:18:16",1
"20/05/20","05:30",0.0,13.9,89.4,998.6,310.1,1.7,3.2,342.1,0.00,12.2,16.7,"05:23:28",1
"20/05/20","05:40",0.0,14.1,89.5,999.1,293.1,1.2,2.7,326.6,0.01,12.4,16.7,"05:30:08",1
"20/05/20","05:50",0.0,14.5,89.5,999.3,297.4,0.8,1.4,285.0,0.02,12.8,16.9,"05:40:08",1
"20/05/20","06:00",0.0,15.1,89.5,999.3,343.3,0.2,1.0,323.5,0.03,13.4,16.7,"05:56:56",1
"20/05/20","06:10",0.0,16.1,89.1,999.3,129.4,0.3,1.3,129.7,0.05,14.3,16.9,"06:06:48",1
"20/05/20","06:20",0.0,16.7,88.5,999.6,58.7,0.5,1.2,341.3,0.07,14.8,17.0,"06:18:56",1
"20/05/20","06:30",0.0,17.4,87.4,999.8,328.2,0.8,2.0,343.3,0.08,15.3,16.8,"06:25:20",1
"20/05/20","06:40",0.0,17.7,84.0,1000.0,306.1,1.3,2.6,251.3,0.10,15.0,17.0,"06:32:56",1
"20/05/20","06:50",0.0,18.3,78.3,1000.5,317.3,2.0,4.1,351.8,0.12,14.5,17.2,"06:41:52",1
"20/05/20","07:00",0.0,18.6,72.2,1000.0,304.8,2.2,3.9,310.8,0.15,13.5,17.4,"06:58:24",1
"20/05/20","07:10",0.0,18.9,68.6,1000.0,310.6,2.5,4.8,349.6,0.18,13.0,17.3,"07:03:20",1
"20/05/20","07:20",0.0,19.0,66.7,1000.0,310.6,2.6,5.4,323.2,0.20,12.7,17.3,"07:12:08",1
"20/05/20","07:30",0.0,19.4,65.6,999.8,297.8,2.5,4.7,351.5,0.23,12.8,17.5,"07:22:40",1
"20/05/20","07:40",0.0,19.8,64.6,999.8,300.0,2.0,4.9,304.4,0.26,13.0,17.7,"07:34:00",1
"20/05/20","07:50",0.0,20.1,63.1,999.8,294.7,2.0,4.3,307.2,0.28,12.9,18.0,"07:45:44",1
"20/05/20","08:00",0.0,20.2,62.1,1000.0,290.7,2.0,4.5,251.0,0.31,12.8,18.0,"07:53:52",1
"20/05/20","08:10",0.0,20.4,61.0,1000.0,310.1,2.2,5.5,338.7,0.34,12.7,18.2,"08:06:08",1
"20/05/20","08:20",0.0,20.7,58.6,999.8,319.6,2.0,4.4,330.9,0.36,12.3,18.4,"08:14:32",1
"20/05/20","08:30",0.0,21.3,57.6,999.6,290.7,1.6,4.0,342.5,0.39,12.6,18.5,"08:23:28",1
"20/05/20","08:40",0.0,21.5,56.9,999.6,305.4,2.0,5.0,327.1,0.44,12.6,18.7,"08:35:36",1
"20/05/20","08:50",0.0,21.5,56.3,999.3,315.1,2.5,5.9,351.8,0.50,12.5,19.0,"08:47:20",1
"20/05/20","09:00",0.0,21.6,55.3,999.3,311.6,2.2,4.8,351.8,0.47,12.3,19.2,"08:54:08",1
"20/05/20","09:10",0.0,22.2,54.5,999.8,304.8,2.0,4.7,344.1,0.52,12.6,19.5,"09:06:48",1
"20/05/20","09:20",0.0,22.4,53.4,999.3,292.5,2.3,5.8,231.2,0.60,12.5,19.8,"09:17:36",1
"20/05/20","09:30",0.0,22.1,53.3,999.8,285.1,2.1,4.7,337.4,0.41,12.2,19.7,"09:24:32",1
"20/05/20","09:40",0.0,21.8,55.5,999.6,288.0,1.7,3.5,346.5,0.26,12.5,20.2,"09:30:24",1
"20/05/20","09:50",0.0,21.6,55.6,999.8,285.6,1.6,4.1,329.7,0.21,12.4,20.2,"09:44:00",1
"20/05/20","10:00",0.0,21.4,55.1,999.8,253.6,1.7,4.2,212.9,0.20,12.1,20.3,"09:53:52",1
"20/05/20","10:10",0.0,21.3,54.8,999.8,309.9,1.8,4.4,317.2,0.20,11.9,20.2,"10:06:40",1
"20/05/20","10:20",0.0,21.6,53.6,999.8,264.2,1.8,4.0,248.9,0.31,11.8,20.4,"10:10:48",1
"20/05/20","10:30",0.0,21.9,52.7,1000.0,302.8,2.5,5.9,225.1,0.41,11.9,20.5,"10:23:04",1
"20/05/20","10:40",0.0,21.5,54.2,1000.5,309.8,2.6,4.3,329.5,0.24,11.9,20.6,"10:35:28",1
"20/05/20","10:50",0.0,21.5,52.3,1000.8,266.5,2.5,5.9,229.4,0.25,11.4,20.7,"10:47:04",1
"20/05/20","11:00",0.0,21.6,52.6,1000.3,265.5,2.0,4.2,262.8,0.26,11.5,20.6,"10:52:56",1
"20/05/20","11:10",0.0,21.7,55.7,1000.0,248.6,1.6,3.7,305.8,0.22,12.5,20.8,"11:04:08",1
"20/05/20","11:20",0.0,21.4,54.9,1000.0,247.1,1.3,3.7,222.8,0.12,12.0,20.9,"11:18:24",1
"20/05/20","11:30",0.0,21.5,54.1,1000.0,292.3,1.5,3.5,354.2,0.20,11.9,20.8,"11:20:02",1
"20/05/20","11:40",0.0,21.6,55.1,1000.0,290.1,1.7,4.1,344.9,0.23,12.2,20.8,"11:38:24",1
"20/05/20","11:50",0.0,22.4,52.7,1000.3,300.8,1.8,4.5,343.5,0.46,12.3,21.2,"11:42:40",1
"20/05/20","12:00",0.0,21.8,52.3,1000.8,299.7,2.2,5.6,345.8,0.25,11.6,20.8,"11:50:24",1
"20/05/20","12:10",0.0,21.7,53.3,1000.3,300.1,2.2,5.9,341.5,0.29,11.8,20.9,"12:02:48",1
"20/05/20","12:20",0.0,22.6,54.1,1000.3,298.2,2.0,4.2,285.6,0.51,12.9,21.1,"12:10:08",1
"20/05/20","12:30",0.0,22.7,51.6,999.8,279.6,2.1,5.7,340.6,0.41,12.3,21.2,"12:29:28",1
"20/05/20","12:40",0.0,22.3,51.6,999.8,323.3,2.5,6.0,339.7,0.32,11.9,21.3,"12:39:44",1
"20/05/20","12:50",0.0,21.9,53.1,1000.0,306.6,2.1,5.2,322.2,0.23,12.0,21.4,"12:40:08",1
"20/05/20","13:00",0.0,21.7,54.5,999.6,308.0,2.2,5.5,345.0,0.21,12.2,21.5,"12:56:32",1
"20/05/20","13:10",0.0,21.4,55.3,999.6,281.2,2.1,4.7,355.6,0.18,12.1,21.6,"13:01:52",1
"20/05/20","13:20",0.0,21.2,55.3,1000.0,306.4,2.0,6.0,317.9,0.13,11.9,21.5,"13:16:40",1
"20/05/20","13:30",0.0,21.0,54.9,999.8,312.2,2.1,4.4,315.2,0.11,11.6,21.3,"13:28:48",1
"20/05/20","13:40",0.0,21.1,56.2,999.6,319.0,2.5,5.4,337.6,0.13,12.1,21.3,"13:36:32",1
"20/05/20","13:50",0.0,21.1,56.9,999.8,337.0,3.1,5.4,337.0,0.17,12.3,21.3,"13:45:12",1
"20/05/20","14:00",0.0,21.3,56.3,999.8,325.2,2.3,4.2,334.8,0.15,12.3,21.2,"13:54:56",1
"20/05/20","14:10",0.0,21.2,55.4,999.8,304.4,1.7,4.2,335.9,0.10,12.0,21.1,"14:03:44",1
"20/05/20","14:20",0.0,21.5,55.0,999.6,283.9,1.1,2.2,238.5,0.11,12.1,21.3,"14:18:40",1
"20/05/20","14:30",0.0,21.3,55.2,999.6,276.9,1.5,3.6,235.3,0.08,12.0,21.2,"14:25:36",1
"20/05/20","14:40",0.0,21.3,55.5,999.8,302.8,1.5,3.3,340.6,0.08,12.1,21.1,"14:30:32",1
"20/05/20","14:50",0.0,21.5,54.6,999.8,291.3,1.5,3.6,303.9,0.13,12.0,21.3,"14:46:32",1
"20/05/20","15:00",0.0,21.7,53.9,999.6,288.8,1.6,3.7,232.8,0.15,12.0,21.2,"14:52:56",1
"20/05/20","15:10",0.0,21.9,52.9,999.3,310.3,1.6,3.7,339.6,0.14,11.9,21.0,"15:05:52",1
"20/05/20","15:20",0.0,21.8,53.3,999.6,303.7,1.5,3.6,342.1,0.11,11.9,21.1,"15:17:04",1
"20/05/20","15:30",0.0,21.6,52.9,999.6,309.7,1.6,3.2,333.5,0.10,11.6,20.9,"15:23:52",1
"20/05/20","15:40",0.0,21.7,53.8,1000.0,298.5,1.3,3.1,343.2,0.09,12.0,21.1,"15:36:40",1
"20/05/20","15:50",0.0,21.5,54.8,1000.0,298.7,1.2,2.0,250.9,0.07,12.1,21.1,"15:42:16",1
"20/05/20","16:00",0.0,21.5,55.6,1000.5,302.8,1.0,2.0,335.6,0.06,12.3,20.9,"15:53:52",1
"20/05/20","16:10",0.0,21.2,54.9,1000.5,312.7,1.2,2.1,337.7,0.03,11.8,20.7,"16:01:44",1
"20/05/20","16:20",0.0,21.3,56.3,1000.0,328.0,1.1,2.7,338.1,0.04,12.3,21.1,"16:12:40",1
"20/05/20","16:30",0.0,21.2,57.4,1000.0,307.6,0.8,3.3,341.8,0.05,12.5,20.7,"16:27:36",1
"20/05/20","16:40",0.0,21.0,56.9,1000.0,330.3,1.7,3.7,348.1,0.04,12.2,20.8,"16:35:20",1
"20/05/20","16:50",0.0,20.9,58.1,1000.3,333.0,1.6,2.5,339.0,0.04,12.4,20.8,"16:40:48",1
"20/05/20","17:00",0.0,20.8,57.4,1000.0,332.9,1.3,2.8,334.2,0.03,12.1,20.8,"16:52:08",1
"20/05/20","17:10",0.0,20.7,58.1,1000.3,321.4,1.3,2.2,336.6,0.02,12.2,20.7,"17:00:16",1
"20/05/20","17:20",0.0,20.6,58.0,1000.5,335.4,1.3,2.6,311.9,0.02,12.1,20.7,"17:19:36",1
"20/05/20","17:30",0.0,20.3,58.8,1000.5,322.1,1.6,3.3,332.3,0.00,12.0,20.6,"17:28:24",1
"20/05/20","17:40",0.0,20.3,59.5,1000.8,329.1,1.3,2.5,333.0,0.00,12.2,20.4,"17:32:24",1
"20/05/20","17:50",0.0,20.2,60.1,1001.0,326.6,1.6,2.5,318.3,0.01,12.3,20.5,"17:45:20",1
"20/05/20","18:00",0.0,20.2,63.3,1000.8,341.7,1.6,3.4,356.2,0.00,13.1,20.4,"17:57:36",1
"20/05/20","18:10",0.0,19.6,65.9,1001.2,343.6,2.0,3.7,346.4,0.00,13.1,20.2,"18:04:48",1
"20/05/20","18:20",0.0,19.3,67.3,1001.5,347.9,2.1,5.8,347.1,0.00,13.1,20.2,"18:14:40",1
"20/05/20","18:30",0.0,19.1,68.0,1001.7,350.7,1.8,4.0,343.1,0.00,13.1,20.2,"18:23:36",1
"20/05/20","18:40",0.0,18.9,68.6,1002.2,354.4,1.3,3.4,2.5,0.00,13.0,19.9,"18:30:16",1
"20/05/20","18:50",0.0,18.8,69.0,1002.2,13.9,0.8,2.4,3.2,0.00,13.0,20.0,"18:47:20",1
"20/05/20","19:00",0.0,18.7,69.2,1002.4,43.1,0.7,1.7,121.4,0.00,13.0,19.8,"18:55:12",1
"20/05/20","19:10",0.0,18.6,69.5,1002.6,5.8,0.6,1.6,56.6,0.00,13.0,19.8,"19:06:24",1
"20/05/20","19:20",0.0,18.6,70.0,1003.1,354.7,0.6,1.6,120.8,0.00,13.1,19.6,"19:19:44",1
"20/05/20","19:30",0.0,18.4,71.1,1002.9,84.9,0.7,1.9,126.0,0.00,13.1,19.7,"19:21:28",1
"20/05/20","19:40",0.0,18.2,72.6,1003.4,100.1,0.7,2.5,99.6,0.00,13.2,19.8,"19:34:16",1
"20/05/20","19:50",0.0,17.9,74.3,1003.8,113.3,0.8,1.8,120.2,0.00,13.3,19.6,"19:43:36",1
"20/05/20","20:00",0.0,17.7,75.8,1004.1,128.5,1.2,2.5,156.0,0.00,13.4,19.4,"19:54:48",1
"20/05/20","20:10",0.0,17.5,76.7,1003.6,105.0,1.0,2.4,110.2,0.00,13.4,19.4,"20:02:56",1
"20/05/20","20:20",0.0,17.5,77.3,1004.1,77.4,0.6,1.8,127.0,0.00,13.5,19.4,"20:10:24",1
"20/05/20","20:30",0.0,17.3,77.9,1004.3,41.3,0.5,1.9,34.5,0.00,13.5,19.2,"20:25:20",1
"20/05/20","20:40",0.0,17.1,78.7,1004.5,123.7,0.6,1.6,106.5,0.00,13.4,19.2,"20:32:32",1
"20/05/20","20:50",0.0,17.0,79.5,1004.8,136.9,1.0,2.0,126.5,0.00,13.5,19.1,"20:47:12",1
"20/05/20","21:00",0.0,16.8,80.6,1005.0,116.4,0.8,1.8,117.9,0.00,13.5,19.1,"20:57:06",1
"20/05/20","21:10",0.0,16.6,81.5,1005.2,114.7,0.6,2.0,127.1,0.00,13.5,19.1,"21:02:16",1
"20/05/20","21:20",0.0,16.5,82.1,1005.0,202.1,0.2,1.2,120.1,0.00,13.5,18.9,"21:14:08",1
"20/05/20","21:30",0.0,16.5,82.5,1005.2,322.2,0.3,1.7,136.4,0.00,13.6,19.0,"21:29:36",1
"20/05/20","21:40",0.0,16.4,82.9,1005.0,103.9,0.7,2.0,110.2,0.00,13.5,19.1,"21:39:36",1
"20/05/20","21:50",0.0,16.4,83.3,1005.2,48.0,0.6,1.8,117.5,0.00,13.6,18.8,"21:41:28",1
"20/05/20","22:00",0.0,16.3,83.4,1005.5,32.8,0.5,1.4,357.1,0.00,13.5,18.8,"21:53:12",1
"20/05/20","22:10",0.0,16.3,83.5,1005.2,47.1,0.5,1.3,142.3,0.00,13.5,18.9,"22:08:56",1
"20/05/20","22:20",0.0,16.2,83.7,1005.2,124.5,0.3,1.0,233.0,0.00,13.5,18.7,"22:16:56",1
"20/05/20","22:30",0.0,16.0,83.9,1005.5,243.3,0.3,1.0,160.0,0.00,13.3,18.8,"22:28:22",1
"20/05/20","22:40",0.0,16.0,84.1,1005.5,150.0,0.2,1.0,134.0,0.00,13.4,18.7,"22:38:56",1
"20/05/20","22:50",0.0,15.9,84.3,1005.2,245.2,0.2,1.2,328.7,0.00,13.3,18.7,"22:49:20",1
"20/05/20","23:00",0.0,15.9,84.5,1005.5,327.8,0.7,1.4,321.0,0.00,13.3,18.6,"22:59:12",1
"20/05/20","23:10",0.0,15.7,84.7,1005.0,306.3,0.7,1.2,318.5,0.00,13.2,18.6,"23:00:08",1
"20/05/20","23:20",0.0,15.5,84.8,1005.5,296.0,0.6,0.9,290.9,0.00,13.0,18.5,"23:10:08",1
"20/05/20","23:30",0.0,15.3,85.0,1005.2,303.4,0.8,1.4,325.2,0.00,12.8,18.5,"23:29:52",1
"20/05/20","23:40",0.0,15.3,85.5,1005.2,329.6,1.2,1.9,334.1,0.00,12.9,18.5,"23:36:32",1
"20/05/20","23:50",0.0,15.2,86.0,1005.0,328.7,1.1,1.7,322.3,0.00,12.9,18.3,"23:49:04",1
"20/05/20","24:00",0.0,15.1,86.6,1005.0,323.1,1.3,1.9,342.8,0.00,12.9,18.3,"23:57:52",1
